Regional Weather Roundup
Issued by NWS

Home | Current Version | Previous Version | Text Only | Print | Product List | Glossary Off
Versions: 1 2 3 4 5 6 7 8 9 10 11 12 13 14 15 16 17 18 19 20 21 22 23 24 25 26 27 28 29 30 31 32 33 34 35 36 37 38 39 40 41 42 43 44 45 46 47 48 49 50

131
ASUS44 KJAN 261403
RWRMS

MISSISSIPPI HOURLY WEATHER ROUNDUP
NATIONAL WEATHER SERVICE JACKSON MS
900 AM CDT THU MAR 26 2015

NOTE: "FAIR: INDICATES FEW OR NO CLOUDS BELOW 12,000 FEET WITH NO
SIGNIFICANT WEATHER AND/OR OBSTRUCTIONS TO VISIBILITY.

MSZ001>002-007>008-010>013-018>021-025>028-034>036-261500-
NORTHWEST MISSISSIPPI

CITY           SKY/WX    TMP DP  RH WIND       PRES   REMARKS
CLARKSDALE       N/A     63  63 100 CALM      29.90F
CLEVELAND      FAIR      61  60  94 S6        29.90F
GREENWOOD      SUNNY     66  55  67 SW9       29.93F
GREENVILLE     PTSUNNY   62  58  86 S6        29.90F
OLIVE BRANCH   LGT RAIN  61  61 100 CALM      29.90F
OXFORD         FAIR      61  55  82 SW6       29.95S
TUNICA         CLOUDY    61  59  94 E9        29.86F
$$

MSZ003>006-009-014>017-022>024-029>033-037>039-261500-
NORTHEAST MISSISSIPPI

CITY           SKY/WX    TMP DP  RH WIND       PRES   REMARKS
COLUMBUS AFB   SUNNY     66  58  76 VRB5      29.93F
CORINTH        CLOUDY    64  57  77 SW9       29.91R
GOLDN TRIANGLE SUNNY     64  57  77 SW9       29.95S
STARKVILLE     FAIR      64  59  82 SW7       29.94F
TUPELO         CLOUDY    63  57  81 W5        29.94R
$$

MSZ040-058-261500-
CENTRAL MISSISSIPPI

CITY           SKY/WX    TMP DP  RH WIND       PRES   REMARKS
JACKSON INTL   PTSUNNY   66  60  81 CALM      29.95F
JACKSON HAWKNS MOSUNNY   65  59  81 CALM      29.95F
MERIDIAN KEY   CLOUDY    62  60  93 W5        29.96F
MERIDIAN NAS   PTSUNNY   61  59  93 CALM      29.95F FOG
RAYMOND        FAIR      64  59  82 CALM      29.93F
VICKSBURG      MOSUNNY   65  59  81 E3        29.94F
$$

MSZ059>079-261500-
SOUTH MISSISSIPPI

CITY           SKY/WX    TMP DP  RH WIND       PRES   REMARKS
BROOKHAVEN     CLOUDY    64  64 100 CALM      29.96F
HATTIESBURG    CLOUDY    63  61  93 CALM      29.97R
MCCOMB         PTSUNNY   66  64  93 CALM      29.94F
NATCHEZ        SUNNY     66  61  82 CALM      29.93S
PINE BELT      CLOUDY    63  45  51 CALM      29.97S
$$

MSZ080>082-261500-
COASTAL MISSISSIPPI

CITY           SKY/WX    TMP DP  RH WIND       PRES   REMARKS
BAY ST LOUIS   PTSUNNY   66  63  88 CALM      29.93S
BILOXI         CLOUDY    67  66  97 NE3       29.93F
PASCAGOULA     CLOUDY    65  64  97 CALM      29.93F
GULFPORT       CLOUDY    67  64  90 CALM      29.93S
$$



USA.gov is the U.S. government's official web portal to all federal, state and local government web resources and services.